Find Starlink 35191

NORAD ID: 65594 Int'l Des: 2025-207 Owner: SPXS Country: US Constellation: starlink operational
LEOCIRCULARRETROGRADESSO

現在のビュー

3D地球を読み込み中...

About Starlink 35191

Starlink 35191 (NORAD 65594) is a starlink constellation satellite (v2 mini) launched Sep 13, 2025 by SPXS of US. It operates in LEO, CIRCULAR, RETROGRADE, SSO orbit with a mass of 575.00 kg.

Starlink 35191について

説明を読み込み中...

次回通過

Passes for default location (London). Set your location on the main map for personalized predictions.

高度履歴

Loading altitude history...

軌道要素

1 65594U 25207C 26195.45045619 .00002250 00000-0 15978-3 0 9994
2 65594 97.2852 261.5426 0001597 122.7961 237.3421 15.05658732 47162
Epoch: Jul 14, 2026 • Age: 12 hours

現在のステータス

高度 560.2 km
遠地点 / 近地点 N/A
速度 7.59 km/s
衛星直下点 68.34°N, 169.11°W
打ち上げ日 Sep 13, 2025
運用期間 0.8 years
タイプ internet

技術仕様

分類 Payload
質量 575.00 kg
乾燥質量 530.00 kg
総質量 575.00 kg
長さ 0.30 m
直径 4.10 m
スパン 29.00 m
形状 Box + pan
製造者 SPXS
バスタイプ Starlink V2MO
フェーズステータス In Orbit
所有者/国 SPXS/US

Most Searched